Weather History for Lanseria, South Africa

Change the Weather History Date:

Thursday, July 11, 2013

  Actual Average Record
Temperature  
Mean Temperature 52 °F -  
Max Temperature 62 °F - - ()
Min Temperature 42 °F - - ()
Degree Days  
Heating Degree Days 13    
Growing Degree Days 2 (Base 50)    
Moisture  
Dew Point 38 °F    
Average Humidity 58    
Maximum Humidity 100    
Minimum Humidity 34    
Precipitation  
Precipitation 0.00 in - - ()
Sea Level Pressure  
Sea Level Pressure 30.49 in    
Wind  
Wind Speed 5 mph ()    
Max Wind Speed 10 mph    
Max Gust Speed -    
Visibility 5.6 miles    
Events      
T = Trace of Precipitation, MM = Missing Value Source: Averaged Metar Reports

Daily Weather History Graph

Daily Weather History Graph

Search for Another Location

Airport:

Trip Planner

Search our weather history database for the weather conditions in past years. The results will help you decide how hot, cold, wet, or windy it might be!

Date:

Astronomy

Jul. 11, 2013 Rise Set
Actual Time 6:55 AM SAST 5:32 PM SAST
Civil Twilight 6:30 AM SAST 5:57 PM SAST
Nautical Twilight 6:01 AM SAST 6:25 PM SAST
Astronomical Twilight 5:33 AM SAST 6:53 PM SAST
Moon 8:40 AM SAST (7/11) 8:28 PM SAST (7/11)
Length of Visible Light 11h 27m
Length of Day
10h 37m
Waxing Crescent, 9% of the Moon is Illuminated
Jul 11
Waxing Crescent
Jul 16
First Quarter
Jul 22
Full
Jul 29
Last Quarter
Aug 6
New

Hourly Weather History & Observations

Time (SAST) Temp. Windchill Dew Point Humidity Pressure Visibility Wind Dir Wind Speed Gust Speed Precip Events Conditions
1:00 AM 50.0 °F - 37.4 °F 62% 30.51 in - East 6.9 mph - N/A   Clear
6:00 AM 44.6 °F 40.2 °F 41.0 °F 87% 30.48 in 5.6 mi SSE 8.1 mph - N/A   Unknown
7:00 AM 42.8 °F 41.1 °F 42.8 °F 100% 30.51 in 5.6 mi SSE 3.5 mph - N/A   Unknown
8:00 AM 46.4 °F 44.3 °F 44.6 °F 93% 30.54 in 4.3 mi ESE 4.6 mph - N/A   Unknown
8:46 AM 50.0 °F - 42.8 °F 76% 30.54 in 5.0 mi Variable 3.5 mph - N/A   Unknown
9:00 AM 51.8 °F - 42.8 °F 71% 30.54 in 5.0 mi ESE 5.8 mph - N/A   Unknown
9:43 AM 55.4 °F - 44.6 °F 67% 30.54 in 5.0 mi East 8.1 mph - N/A   Unknown
10:00 AM 55.4 °F - 42.8 °F 63% 30.54 in 5.6 mi ENE 5.8 mph - N/A   Partly Cloudy
11:00 AM 59.0 °F - 37.4 °F 45% 30.54 in 6.2 mi ENE 10.4 mph - N/A   Partly Cloudy
12:00 PM 59.0 °F - 37.4 °F 45% 30.51 in 6.2 mi NE 8.1 mph - N/A   Scattered Clouds
1:00 PM 59.0 °F - 37.4 °F 45% 30.48 in 6.2 mi ESE 4.6 mph - N/A   Scattered Clouds
2:00 PM 62.6 °F - 33.8 °F 34% 30.45 in 6.2 mi East 6.9 mph - N/A   Scattered Clouds
3:00 PM 60.8 °F - 33.8 °F 36% 30.42 in 6.2 mi ENE 9.2 mph - N/A   Scattered Clouds
4:00 PM 60.8 °F - 33.8 °F 36% 30.42 in 6.2 mi East 10.4 mph - N/A   Scattered Clouds
5:00 PM 60.8 °F - 33.8 °F 36% 30.42 in 6.2 mi East 4.6 mph - N/A   Partly Cloudy
6:00 PM 57.2 °F - 35.6 °F 44% 30.45 in 5.6 mi ESE 5.8 mph - N/A   Partly Cloudy
7:00 PM 55.4 °F - 35.6 °F 47% 30.45 in 5.6 mi Calm Calm - N/A   Unknown
8:00 PM 51.8 °F - 35.6 °F 54% 30.45 in 5.0 mi Calm Calm - N/A   Unknown
9:00 PM 50.0 °F - 35.6 °F 58% 30.45 in 5.0 mi Variable 2.3 mph - N/A   Unknown
10:00 PM 48.2 °F - 35.6 °F 62% 30.48 in 5.6 mi South 4.6 mph - N/A   Unknown